Regional Weather Roundup
Issued by NWS New Orleans/Baton Rouge, LA

Home | Current Version | Previous Version | Text Only | Print | Product List | Glossary On
Versions: 1 2 3 4 5 6 7 8 9 10 11 12 13 14 15 16 17 18 19 20 21 22 23 24 25 26 27 28 29 30 31 32 33 34 35 36 37 38 39 40 41 42 43 44 45 46 47 48 49 50
000
ASUS44 KLIX 301911
RWRLIX
NEW ORLEANS REGIONAL WEATHER ROUNDUP
NATIONAL WEATHER SERVICE NEW ORLEANS LA
200 PM CDT SAT MAY 30 2015

NOTE: "FAIR" INDICATES FEW OR NO CLOUDS BELOW 12,000 FEET WITH NO
      SIGNIFICANT WEATHER AND/OR OBSTRUCTIONS TO VISIBILITY.
      SKY/WX - SKY CONDITION AND SIGNIFICANT WEATHER.
      TMP - AIR TEMPERATURE.     DP    - DEWPOINT TEMPERATURE.
      RH  - RELATIVE HUMIDITY.   PRES  - PRESSURE.
      HI  - HEAT INDEX.          WCI   - WIND CHILL INDEX.

*  THESE STATIONS ARE NOT NWS OR FAA STATIONS AND ARE NOT UNDER
   NWS QUALITY CONTROL.

LAZ038-040-048-061>063-065>067-069-302000-
SOUTHEAST LOUISIANA

CITY           SKY/WX    TMP DP  RH WIND       PRES   REMARKS
N.O. AUDUBON     N/A     84  75  73 MISG        N/A
N.O. INTL ARPT PTSUNNY   83  68  60 NE7       30.04F
N.O. LAKEFRONT MOSUNNY   86  70  58 SE14      30.05F
SLIDELL        PTSUNNY   86  72  62 SE12G21   30.04F
BATON ROUGE    MOSUNNY   86  67  52 CALM      30.02F
BOOTHVILLE     PTSUNNY   82  71  69 E8        30.07F
BELLE CHASSE   PTSUNNY   86  69  56 SE12G18   30.03F
BOGALUSA*        N/A     87  65  48 CALM      30.05F
GALLIANO*      PTCLDY    87  72  59 S7        30.05F
NEW ROADS*     MOCLDY    87  68  53 S6        30.02F
GONZALES*        N/A     87  69  55 E6        30.01F
HAMMOND*       SUNNY     88  68  51 S5        30.05F
HOUMA*         MOSUNNY   88  72  58 S9        30.04F
PORT FOURCHON* CLEAR     84  70  61 SE14      30.06F

$$

MSZ070-080>082-302000-
SOUTHERN MISSISSIPPI

CITY           SKY/WX    TMP DP  RH WIND       PRES   REMARKS
MCCOMB         PTSUNNY   87  70  56 VRB5      30.04F
GULFPORT       MOSUNNY   84  67  56 SE9       30.06F
BILOXI         MOSUNNY   84  69  59 S9        30.06F
PASCAGOULA     MOSUNNY   85  63  47 SE12G21   30.06F
STENNIS ARPT*  MOSUNNY  N/A N/A N/A MISG      30.06F

$$

COASTAL OBSERVATIONS
LAKE AND NEARSHORE STATIONS

STATION/POSITION TIME  TEMP    WIND        PRES    WAVE
                       AIR SEA DIR/SP/G            HT/PER
                 (UTC) (F)     (DEG/KT/KT) (MB)    (FT/S)
PASCAGOULA       1800   84     140/  7/ 12 1018.4
WAVELAND YACHT   1800   80 82  140/ 11/ 12 1018.7
GRAND ISLE       1800   82 83  130/  6/ 10 1018.3
SOUTHWEST PASS   1800   85 75  110/  9/ 10 1019.0
NEW CANAL        1800   78 81   40/  5/  6 1017.4
SHELL BEACH      1800   77 82  120/ 14/ 17 1017.9

OFFSHORE STATIONS

STATION/POSITION TIME  TEMP    WIND        PRES    WAVE
                       AIR SEA DIR/SP/G            HT/PER
                 (UTC) (F)     (DEG/KT/KT) (MB)    (FT/S)
64 S DAUPHIN ISL 1850   78 83  120/  6/ 10 1018.5    2/ 7

$$



USA.gov is the U.S. government's official web portal to all federal, state and local government web resources and services.